Total_Precipitation_Accumulation
2.49 2.61 3.15 3.04 2.79 2.66 2.40 2.51 2.71 2.78 2.95 3.07 3.11 2.85 2.70 2.72 2.74 2.95 3.11 3.32 3.60 3.81 3.83 3.68 3.67 3.61 3.40 3.28 3.31 3.13 2.95 2.94 2.92 2.83 2.86 2.81 2.94 3.06 3.31 3.49 3.59 2.83 2.48
1.88 2.10 2.79 2.77 2.60 2.64 2.55 2.53 2.47 2.57 2.82 3.10 2.86 2.53 2.42 2.44 2.50 2.82 3.21 3.43 3.78 4.07 3.80 3.53 3.55 3.51 3.46 3.39 3.27 3.10 3.04 3.16 3.25 3.44 3.60 3.30 3.38 3.34 3.35 3.21 3.42 2.91 2.62
1.49 1.63 2.08 2.55 2.49 2.62 2.67 2.38 2.30 2.42 2.63 2.75 2.50 2.37 2.39 2.50 2.54 2.70 2.89 3.10 3.65 3.84 3.64 3.50 3.43 3.43 3.39 3.52 3.34 3.11 3.20 3.34 3.57 4.00 4.25 3.27 2.78 3.18 3.23 3.08 2.98 2.76 2.48
1.26 1.30 1.50 2.15 2.48 2.75 2.63 2.40 2.30 2.38 2.59 2.41 2.33 2.24 2.34 2.60 2.78 3.01 3.09 3.16 3.36 3.45 3.37 3.38 3.33 3.49 3.45 3.29 3.23 3.28 3.39 3.28 3.55 3.95 3.82 2.74 2.09 2.59 2.89 2.74 2.72 2.67 2.62
1.18 1.25 1.55 2.23 2.46 2.50 2.51 2.36 2.25 2.39 2.44 2.32 2.17 2.07 2.24 2.48 2.77 2.88 3.08 3.25 3.17 3.29 3.33 3.36 3.28 3.49 3.44 3.22 3.28 3.40 3.43 3.35 3.49 3.29 2.72 2.83 2.74 2.64 2.51 2.59 3.00 3.14 2.94
1.23 1.35 1.74 2.24 2.31 2.40 2.39 2.33 2.22 2.29 2.34 2.25 2.14 2.16 2.35 2.44 2.51 2.47 2.63 2.89 2.96 3.06 3.24 3.40 3.39 3.47 3.49 3.46 3.52 3.40 3.19 3.14 2.93 2.20 2.10 2.54 2.61 2.63 2.53 2.79 3.14 3.34 3.22
1.26 1.50 1.90 2.30 2.35 2.44 2.17 2.11 2.12 2.14 2.16 2.14 2.13 2.07 2.24 2.34 2.41 2.42 2.48 2.68 2.93 3.15 3.22 3.32 3.47 3.51 3.73 4.18 4.06 3.50 3.07 2.90 2.35 1.91 2.03 2.42 2.45 2.44 2.77 3.00 3.07 3.05 2.99
1.57 1.75 2.17 2.57 2.64 2.64 2.35 2.22 2.20 2.11 2.07 2.10 2.09 2.10 2.04 2.20 2.31 2.33 2.42 2.60 2.95 3.37 3.32 3.29 3.45 3.46 4.03 4.41 3.89 3.20 2.87 2.38 1.78 1.78 1.95 2.19 2.10 2.22 2.70 3.03 3.20 3.32 3.13
1.84 1.96 2.21 2.60 2.74 2.75 2.57 2.48 2.29 2.18 2.15 2.22 2.22 2.12 2.15 2.15 2.11 2.08 2.21 2.56 2.81 3.26 3.17 3.26 3.43 3.68 4.04 3.85 3.32 2.96 2.76 2.44 1.91 1.99 1.88 2.01 1.96 2.22 2.54 2.77 2.92 3.17 3.16
2.21 2.16 2.07 2.21 2.54 2.41 2.24 2.35 2.27 2.23 2.30 2.38 2.43 2.38 2.54 2.45 2.19 2.20 2.25 2.52 2.73 2.93 2.88 2.97 3.25 3.52 3.46 3.31 3.04 2.89 2.82 2.51 1.99 2.04 2.19 1.94 2.03 2.40 2.63 2.62 2.84 3.13 2.97
2.60 2.24 1.97 1.98 2.26 2.21 1.99 2.05 2.50 2.61 2.58 2.66 2.85 2.93 3.21 3.23 2.71 2.74 2.46 2.68 2.94 2.89 2.83 3.06 3.27 3.59 3.60 3.39 3.29 3.19 2.91 2.41 2.37 2.39 2.59 2.13 2.13 2.60 2.90 2.94 2.89 2.78 2.73
2.62 2.56 2.29 2.08 2.02 2.07 1.90 2.13 2.90 2.87 2.91 3.16 3.49 3.39 3.56 3.41 3.11 2.43 2.57 3.15 3.32 3.33 3.42 3.80 4.16 3.95 3.66 3.53 3.71 3.86 3.06 2.64 2.57 2.45 2.47 2.24 2.37 2.94 3.35 3.38 3.21 2.72 2.59
2.56 2.44 2.52 2.39 2.22 2.21 2.42 2.36 2.71 3.08 3.27 3.37 3.33 3.28 3.43 2.98 2.64 2.52 3.09 3.64 3.53 3.46 3.60 3.98 4.29 3.47 3.53 4.21 4.20 3.88 3.52 3.22 2.96 2.80 2.77 2.66 2.85 3.45 3.90 3.93 3.69 3.04 2.76
2.82 2.68 2.95 2.88 2.81 2.87 2.70 2.68 2.61 2.68 2.74 2.78 2.96 2.81 2.86 3.01 2.95 3.10 3.48 3.57 3.56 3.69 4.05 3.86 4.08 3.95 4.10 4.11 4.02 4.03 4.00 3.75 3.47 3.37 3.60 3.34 3.33 3.60 4.22 4.27 3.86 3.47 3.25
3.23 3.27 3.38 3.40 3.56 3.46 3.27 3.10 2.61 2.65 2.54 2.45 2.56 2.53 2.66 3.01 3.21 3.58 3.50 3.54 3.22 3.38 3.74 4.09 4.11 4.32 4.59 4.43 3.91 3.69 3.83 3.73 3.41 3.17 3.31 3.53 3.63 3.64 4.11 4.45 4.14 3.81 3.64
3.71 3.96 3.91 3.91 3.98 3.85 3.52 3.28 2.99 2.64 2.67 2.43 2.45 2.55 3.00 3.28 3.44 3.80 3.72 3.59 3.22 3.23 3.60 3.95 3.98 4.30 4.42 4.48 3.93 3.60 3.62 3.56 3.24 2.93 2.99 3.47 3.56 3.49 3.77 4.24 4.38 4.28 4.08
4.32 4.54 4.75 4.63 4.34 4.45 4.12 3.37 2.84 2.56 2.40 2.57 2.75 2.83 3.14 3.30 3.68 4.02 3.95 3.50 3.22 3.32 3.55 3.55 3.70 4.19 4.10 4.04 3.93 3.79 3.70 3.49 3.16 3.08 3.02 3.22 3.10 3.27 3.60 3.78 4.09 4.40 4.50
4.82 5.27 5.51 5.08 4.99 5.05 4.76 4.18 3.55 3.21 3.06 3.14 3.21 3.06 2.87 3.08 3.31 3.74 3.48 3.02 3.06 3.25 3.51 3.62 3.57 3.93 4.09 4.09 4.13 3.92 3.72 3.51 3.11 3.00 3.01 2.99 3.00 2.79 3.12 3.46 3.86 4.21 4.65
5.08 5.81 6.26 6.50 6.02 5.67 5.10 4.70 4.13 3.82 3.67 3.43 3.23 2.95 2.66 2.44 2.37 2.80 2.80 2.72 2.72 3.03 3.14 2.79 3.07 3.41 3.64 3.80 3.48 3.41 3.07 2.89 2.81 2.58 2.55 2.47 2.70 2.87 3.03 3.08 3.45 3.80 4.46
5.17 5.90 6.35 6.66 6.19 5.48 5.16 5.15 4.82 4.25 3.78 3.40 3.10 2.90 2.50 2.42 2.19 2.49 2.53 2.38 2.34 2.63 2.80 2.94 3.24 3.27 3.14 3.21 2.74 2.77 2.77 2.53 2.55 2.50 2.31 2.32 2.43 2.40 2.71 3.02 3.32 3.10 3.65
5.54 6.22 6.39 6.22 5.58 5.10 4.69 4.45 4.19 3.97 3.67 3.15 2.77 2.55 2.44 2.35 2.37 2.69 2.48 2.56 2.41 2.46 2.56 2.64 2.87 2.95 2.73 2.90 3.25 3.09 2.75 2.48 2.45 2.38 2.31 2.41 2.41 2.51 2.72 3.11 3.33 3.38 3.25
5.10 5.46 5.58 5.27 4.57 4.12 3.90 3.88 3.61 3.42 3.10 2.88 2.63 2.68 2.32 2.20 2.28 2.23 2.50 2.37 2.32 2.57 2.54 2.64 2.88 2.83 2.52 2.69 3.20 3.47 3.25 3.21 2.66 2.00 2.19 2.32 2.36 2.61 2.66 2.64 2.89 3.43 3.48
4.58 4.37 4.09 3.96 3.64 3.59 3.57 3.41 3.19 3.15 2.90 2.73 2.53 2.50 2.17 1.92 1.92 2.05 2.13 2.12 2.31 2.29 2.53 2.67 2.75 2.93 2.88 2.63 2.63 3.15 3.21 3.22 2.93 2.29 1.95 2.06 2.37 2.70 2.72 2.71 2.67 3.02 3.35
3.59 3.32 3.17 3.15 3.14 3.13 3.05 2.94 2.65 2.55 2.56 2.41 2.33 2.39 2.28 1.98 1.90 1.95 2.01 2.19 2.30 2.20 2.56 2.29 2.45 2.83 2.99 2.70 2.67 2.59 2.65 2.88 2.96 2.79 2.36 2.03 2.20 2.36 2.51 2.49 2.57 2.92 3.18
2.34 2.50 2.61 2.81 2.98 2.90 2.84 2.87 2.83 2.55 2.51 2.47 2.47 2.60 2.51 2.25 2.02 1.83 2.05 2.37 2.47 2.32 2.38 2.47 2.80 2.75 2.73 2.70 2.65 2.56 2.67 2.76 2.57 2.65 2.65 2.44 2.24 1.88 1.99 2.30 2.53 2.70 2.87
1.68 1.92 2.16 2.31 2.46 2.65 2.70 2.57 2.52 2.49 2.58 2.64 2.61 2.46 2.29 2.17 2.06 1.95 2.12 2.42 2.47 2.53 2.51 2.46 2.56 2.62 2.73 2.81 2.69 2.49 2.56 2.68 2.68 2.80 2.55 2.48 2.49 2.11 2.15 2.40 2.51 2.67 2.64